AFL1430 UNNT-UNBB

Flight info

Callsign AFL1430
Flight time 0h 30m
Altitude 23000
Route ALIRO
Aircraft A320/M-SDE3FGHIRWY/LB1

Departure

Time 2026-04-29 05:48
Airport Novosibirsk Tolmachevo Airport (UNNT)

Arrival

Time 2026-04-29 06:18
Airport Barnaul Gherman Titov International Airport (UNBB)
Time Latitude Longitude Altitude Speed Heading
2026-04-29 05:43 55.01068 82.66329 373 ft 0 kts 171°
2026-04-29 05:45 55.01054 82.66536 373 ft 14 kts 63°
2026-04-29 05:46 55.01076 82.66615 373 ft 2 kts 62°
2026-04-29 05:46 55.01090 82.66644 373 ft 6 kts 43°
2026-04-29 05:46 55.01154 82.66649 373 ft 13 kts 353°
2026-04-29 05:46 55.01270 82.66619 373 ft 20 kts 352°
2026-04-29 05:47 55.01377 82.66545 375 ft 15 kts 276°
2026-04-29 05:47 55.01354 82.66272 373 ft 45 kts 261°
2026-04-29 05:47 55.01264 82.65283 373 ft 117 kts 261°
2026-04-29 05:47 55.01105 82.63584 545 ft 155 kts 259°
2026-04-29 05:48 55.00903 82.61685 1251 ft 160 kts 259°
2026-04-29 05:48 55.00695 82.59661 1769 ft 181 kts 259°
2026-04-29 05:48 55.00465 82.57367 2201 ft 203 kts 259°
2026-04-29 05:48 55.00283 82.54762 2683 ft 231 kts 274°
2026-04-29 05:49 55.00922 82.52087 3248 ft 257 kts 313°
2026-04-29 05:49 55.02489 82.50524 4115 ft 268 kts 349°
2026-04-29 05:49 55.04340 82.50822 5104 ft 274 kts 23°
2026-04-29 05:49 55.05814 82.52912 6109 ft 279 kts 57°
2026-04-29 05:50 55.06399 82.56101 7074 ft 282 kts 90°
2026-04-29 05:50 55.05894 82.59376 8024 ft 285 kts 122°
2026-04-29 05:50 55.04752 82.62210 8991 ft 287 kts 127°
2026-04-29 05:50 55.03565 82.65045 9834 ft 296 kts 127°
2026-04-29 05:51 55.02295 82.68062 10217 ft 320 kts 127°
2026-04-29 05:51 55.00958 82.71248 10859 ft 331 kts 125°
2026-04-29 05:51 54.99815 82.74784 11673 ft 337 kts 115°
2026-04-29 05:51 54.98908 82.78569 12509 ft 342 kts 111°
2026-04-29 05:52 54.98115 82.82506 13331 ft 346 kts 109°
2026-04-29 05:52 54.97360 82.86497 14108 ft 350 kts 108°
2026-04-29 05:52 54.96586 82.90539 14848 ft 354 kts 109°
2026-04-29 05:52 54.95774 82.94609 15579 ft 358 kts 110°
2026-04-29 05:53 54.94846 82.98648 16283 ft 362 kts 119°
2026-04-29 05:53 54.93353 83.02175 16955 ft 365 kts 136°
2026-04-29 05:53 54.91319 83.04821 17646 ft 368 kts 153°
2026-04-29 05:53 54.88911 83.06344 18305 ft 371 kts 169°
2026-04-29 05:54 54.86298 83.06604 18950 ft 374 kts 186°
2026-04-29 05:54 54.83746 83.05936 19579 ft 377 kts 189°
2026-04-29 05:54 54.81145 83.05194 20201 ft 381 kts 189°
2026-04-29 05:54 54.79378 83.04689 20608 ft 383 kts 189°
2026-04-29 05:55 54.75836 83.03684 21387 ft 387 kts 189°
2026-04-29 05:55 54.74072 83.03188 21753 ft 390 kts 189°
2026-04-29 05:55 54.71383 83.02440 22301 ft 393 kts 189°
2026-04-29 05:55 54.68672 83.01685 22808 ft 397 kts 189°
2026-04-29 05:56 54.65942 83.00925 22974 ft 397 kts 189°
2026-04-29 05:56 54.63261 83.00176 23008 ft 384 kts 189°
2026-04-29 05:56 54.60640 82.99444 23009 ft 380 kts 189°
2026-04-29 05:56 54.58034 82.98719 23010 ft 379 kts 189°
2026-04-29 05:57 54.55433 82.97996 23009 ft 378 kts 189°
2026-04-29 05:57 54.52834 82.97276 23008 ft 378 kts 189°
2026-04-29 05:57 54.50234 82.96557 23008 ft 378 kts 189°
2026-04-29 05:57 54.47635 82.95841 23008 ft 378 kts 189°
2026-04-29 05:58 54.44943 82.95098 23012 ft 396 kts 189°
2026-04-29 05:58 54.42163 82.94273 23010 ft 414 kts 193°
2026-04-29 05:58 54.39402 82.92597 23011 ft 429 kts 206°
2026-04-29 05:58 54.36852 82.89790 23010 ft 443 kts 220°
2026-04-29 05:59 54.34623 82.86035 23008 ft 456 kts 226°
2026-04-29 05:59 54.32407 82.82055 23009 ft 467 kts 226°
2026-04-29 05:59 54.30140 82.77994 23009 ft 474 kts 226°
2026-04-29 05:59 54.27862 82.73924 23007 ft 475 kts 226°
2026-04-29 06:00 54.25579 82.69856 23003 ft 465 kts 226°
2026-04-29 06:00 54.23402 82.65985 23007 ft 441 kts 226°
2026-04-29 06:00 54.21320 82.62299 23006 ft 419 kts 226°
2026-04-29 06:00 54.19345 82.58813 23008 ft 399 kts 226°
2026-04-29 06:01 54.17455 82.55479 23009 ft 384 kts 226°
2026-04-29 06:01 54.15614 82.52227 23010 ft 379 kts 226°
2026-04-29 06:01 54.13798 82.49017 22798 ft 369 kts 226°
2026-04-29 06:01 54.12043 82.45922 22287 ft 356 kts 226°
2026-04-29 06:02 54.10324 82.42899 21809 ft 355 kts 226°
2026-04-29 06:02 54.08607 82.39883 21326 ft 354 kts 226°
2026-04-29 06:02 54.06821 82.37010 20860 ft 353 kts 215°
2026-04-29 06:02 54.04596 82.35191 20365 ft 351 kts 194°
2026-04-29 06:03 54.02175 82.34866 19892 ft 350 kts 173°
2026-04-29 06:03 53.99854 82.36035 19431 ft 349 kts 152°
2026-04-29 06:03 53.97880 82.38420 18967 ft 348 kts 141°
2026-04-29 06:03 53.96015 82.41030 18528 ft 347 kts 141°
2026-04-29 06:04 53.94162 82.43635 18100 ft 345 kts 141°
2026-04-29 06:04 53.92320 82.46228 17667 ft 343 kts 141°
2026-04-29 06:04 53.90483 82.48800 17246 ft 342 kts 141°
2026-04-29 06:04 53.88650 82.51352 16828 ft 340 kts 141°
2026-04-29 06:05 53.86826 82.53890 16413 ft 339 kts 141°
2026-04-29 06:05 53.85011 82.56411 16002 ft 337 kts 141°
2026-04-29 06:05 53.83196 82.58930 15589 ft 336 kts 141°
2026-04-29 06:05 53.81399 82.61420 15171 ft 330 kts 141°
2026-04-29 06:06 53.79652 82.63840 14791 ft 320 kts 141°
2026-04-29 06:06 53.77935 82.66212 14393 ft 319 kts 141°
2026-04-29 06:06 53.76214 82.68589 14008 ft 319 kts 141°
2026-04-29 06:06 53.74495 82.70962 13610 ft 319 kts 141°
2026-04-29 06:07 53.72778 82.73330 13214 ft 318 kts 141°
2026-04-29 06:07 53.71065 82.75690 12814 ft 317 kts 141°
2026-04-29 06:07 53.69353 82.78042 12396 ft 317 kts 141°
2026-04-29 06:07 53.67646 82.80387 12057 ft 314 kts 141°
2026-04-29 06:08 53.65955 82.82706 11906 ft 305 kts 141°
2026-04-29 06:08 53.64316 82.84953 11521 ft 301 kts 141°
2026-04-29 06:08 53.62697 82.87167 10869 ft 299 kts 141°
2026-04-29 06:08 53.61104 82.89343 10398 ft 292 kts 141°
2026-04-29 06:09 53.59527 82.91497 9995 ft 292 kts 141°
2026-04-29 06:09 53.57951 82.93649 9587 ft 292 kts 141°
2026-04-29 06:09 53.56375 82.95800 9184 ft 291 kts 141°
2026-04-29 06:09 53.54803 82.97942 8777 ft 291 kts 141°
2026-04-29 06:10 53.53235 83.00079 8400 ft 289 kts 141°
2026-04-29 06:10 53.51674 83.02202 7995 ft 287 kts 141°
2026-04-29 06:10 53.50124 83.04309 7555 ft 284 kts 141°
2026-04-29 06:10 53.48612 83.06364 7071 ft 275 kts 141°
2026-04-29 06:11 53.47131 83.08375 6637 ft 275 kts 141°
2026-04-29 06:11 53.45639 83.10396 6195 ft 275 kts 141°
2026-04-29 06:11 53.44148 83.12408 5759 ft 276 kts 142°
2026-04-29 06:11 53.42648 83.14429 5295 ft 276 kts 142°
2026-04-29 06:12 53.41176 83.16418 4849 ft 268 kts 142°
2026-04-29 06:12 53.39724 83.18379 4345 ft 266 kts 141°
2026-04-29 06:12 53.38265 83.20073 4155 ft 245 kts 154°
2026-04-29 06:12 53.36770 83.21161 4032 ft 225 kts 158°
2026-04-29 06:13 53.35362 83.22158 3931 ft 218 kts 158°
2026-04-29 06:13 53.33972 83.23138 3831 ft 216 kts 158°
2026-04-29 06:13 53.32585 83.24115 3733 ft 216 kts 158°
2026-04-29 06:13 53.31206 83.25100 3626 ft 206 kts 154°
2026-04-29 06:14 53.30195 83.26669 3536 ft 199 kts 114°
2026-04-29 06:14 53.30055 83.28917 3293 ft 199 kts 73°
2026-04-29 06:14 53.30565 83.31063 2998 ft 198 kts 67°
2026-04-29 06:14 53.31105 83.33183 2710 ft 197 kts 67°
2026-04-29 06:15 53.31644 83.35301 2423 ft 199 kts 67°
2026-04-29 06:15 53.32177 83.37411 2157 ft 193 kts 67°
2026-04-29 06:15 53.32690 83.39447 1883 ft 184 kts 67°
2026-04-29 06:15 53.33166 83.41344 1665 ft 170 kts 68°
2026-04-29 06:16 53.33607 83.43100 1457 ft 159 kts 68°
2026-04-29 06:16 53.34023 83.44759 1296 ft 150 kts 68°
2026-04-29 06:16 53.34423 83.46354 1270 ft 148 kts 68°
2026-04-29 06:16 53.34819 83.47938 1263 ft 148 kts 68°
2026-04-29 06:17 53.35216 83.49527 1144 ft 147 kts 68°
2026-04-29 06:17 53.35609 83.51104 986 ft 147 kts 68°
2026-04-29 06:17 53.35996 83.52679 845 ft 145 kts 68°
2026-04-29 06:17 53.36349 83.54086 830 ft 109 kts 66°
2026-04-29 06:18 53.36576 83.54994 833 ft 60 kts 68°
2026-04-29 06:18 53.36692 83.55461 837 ft 39 kts 66°
2026-04-29 06:18 53.36788 83.55846 836 ft 23 kts 69°
2026-04-29 06:18 53.36708 83.56001 841 ft 22 kts 160°
2026-04-29 06:19 53.36606 83.55836 835 ft 26 kts 249°
2026-04-29 06:19 53.36530 83.55539 839 ft 30 kts 246°
2026-04-29 06:19 53.36445 83.55195 838 ft 34 kts 248°
2026-04-29 06:19 53.36346 83.54800 832 ft 33 kts 247°
2026-04-29 06:20 53.36273 83.54739 836 ft 12 kts 161°
2026-04-29 06:20 53.36205 83.54722 839 ft 9 kts 234°
2026-04-29 06:20 53.36190 83.54667 838 ft 0 kts 247°